Wind_Speed
19 17 15 13 11 10 8 8 7 7 7 7 6 6 6 5 5 5 4 4 4 3 3 2 2 2 2 2 2 3 4 4 5 6 7 8 9 10 11 12 13 14 15
21 19 17 15 13 11 9 9 9 8 8 8 7 7 7 6 6 6 5 5 5 4 4 3 3 2 2 2 2 2 3 4 5 6 7 8 9 10 11 13 13 14 15
23 21 19 17 15 13 11 10 10 10 9 9 8 8 8 7 7 6 6 6 5 5 5 4 4 3 2 2 2 2 3 4 5 6 7 8 9 11 12 13 14 15 16
25 22 20 18 16 15 13 12 11 11 10 10 9 9 8 8 8 7 7 7 6 6 6 5 4 4 3 3 3 3 3 4 6 7 8 9 10 11 12 13 14 15 17
27 24 22 20 18 16 14 13 13 12 12 11 11 10 10 9 9 8 8 8 7 7 6 6 5 5 4 4 3 4 4 5 6 7 8 9 10 12 13 14 15 16 17
29 26 23 21 19 17 16 15 14 13 13 12 12 12 11 11 10 10 9 8 8 8 7 7 6 6 5 4 4 4 5 6 7 8 9 10 11 12 13 15 16 17 18
30 27 24 22 20 18 17 16 15 15 14 14 14 13 13 12 12 11 10 10 9 9 8 8 7 6 6 6 5 5 6 7 7 8 9 11 12 13 15 16 17 19 20
30 28 25 23 21 19 18 17 16 16 16 16 15 15 14 14 13 12 11 11 11 10 9 9 8 7 7 6 6 6 7 8 8 9 10 11 13 14 15 17 19 20 21
31 29 26 24 22 20 19 18 17 17 17 17 17 16 16 15 15 14 13 12 11 11 10 10 9 8 8 8 7 8 8 9 9 11 11 12 14 15 17 18 20 21 22
32 30 28 25 23 21 20 19 18 18 18 18 18 18 17 17 16 15 14 13 13 12 11 11 10 10 9 9 9 9 10 10 11 12 13 14 15 17 18 20 21 23 24
34 32 29 26 23 21 20 19 18 18 18 19 19 19 18 18 17 16 15 14 13 13 12 12 11 11 10 10 11 11 11 12 13 14 15 16 17 18 20 22 23 24 25
35 33 30 27 24 23 21 20 19 18 18 19 19 19 19 18 17 17 16 15 14 14 13 13 13 12 12 12 12 13 13 14 15 16 17 18 19 20 22 23 25 26 27
35 34 31 27 25 24 22 21 20 19 19 19 20 20 20 19 19 18 17 16 15 15 14 14 14 14 14 14 15 15 15 16 17 18 19 20 21 22 24 25 27 28 28
35 34 32 29 26 25 23 21 21 20 20 20 20 21 21 21 20 20 19 18 17 17 16 16 16 16 16 17 17 17 18 18 20 20 21 22 23 25 26 27 28 29 30
37 34 32 30 28 26 24 23 21 21 20 21 21 21 21 22 22 21 21 20 19 19 19 18 18 19 19 19 19 20 20 21 22 23 24 25 26 27 28 29 30 31 31
37 35 33 32 30 28 26 24 23 22 22 21 22 22 23 23 23 23 23 23 22 21 21 21 21 21 21 22 22 22 23 23 24 25 26 27 28 29 30 31 32 32 32
38 36 34 33 32 31 28 26 25 24 23 23 23 23 24 25 25 25 25 25 25 24 24 23 23 24 24 24 25 25 25 26 26 27 28 30 30 32 32 33 34 34 34
41 37 36 35 34 32 30 28 26 26 25 25 25 25 25 26 27 27 27 28 27 26 26 26 26 26 27 27 27 27 28 28 29 30 31 32 33 34 34 35 35 35 35
42 40 37 37 36 34 33 32 30 29 29 28 28 28 28 29 29 29 30 30 29 29 29 29 29 29 30 30 30 30 30 31 32 33 34 34 35 36 36 37 37 36 36
43 42 41 39 37 37 36 34 32 32 31 30 30 30 31 31 31 31 32 32 32 32 32 32 32 32 33 33 32 32 33 33 34 35 36 37 38 38 38 38 38 38 38
43 43 41 41 39 39 38 37 36 35 34 33 33 33 34 34 34 34 34 34 34 35 35 35 35 35 35 36 35 35 35 36 37 38 39 39 40 40 40 40 40 39 39
45 43 42 41 41 40 40 39 39 39 38 37 35 35 36 37 36 36 36 37 37 37 37 38 38 38 39 39 39 39 38 38 39 40 41 41 42 42 42 41 41 40 40
44 44 43 43 43 41 41 42 41 41 40 40 39 39 39 40 39 38 39 39 39 39 39 40 41 41 41 41 42 42 42 41 40 40 41 42 43 43 42 42 40 40 39
44 44 44 44 44 43 43 43 43 43 42 42 43 43 43 42 42 42 42 42 42 42 42 43 43 43 43 42 43 44 45 45 44 43 42 43 43 43 42 41 41 40 39
44 45 44 44 44 44 44 44 44 44 44 44 45 45 45 44 44 44 44 45 44 45 45 45 44 44 44 44 44 45 45 46 46 47 45 44 44 44 42 41 41 40 40
43 44 44 44 44 44 45 45 45 45 46 46 47 47 47 47 47 47 47 47 46 46 46 47 47 47 47 47 47 47 47 47 48 48 47 47 45 44 43 42 41 41 41
Wind_Direction
219 220 222 224 224 224 227 228 229 233 234 234 234 234 239 243 247 252 258 263 268 277 282 287 297 314 330 347 8 17 20 21 19 16 14 12 10 7 5 4 3 2 0
220 220 221 223 223 222 225 228 228 230 231 230 229 231 235 240 242 247 252 258 262 267 271 271 281 292 304 322 345 3 9 10 9 8 7 5 3 2 1 359 359 358 356
220 220 221 222 222 222 223 226 227 228 227 226 228 229 232 236 239 242 248 254 257 261 265 267 273 282 294 309 327 343 353 357 358 359 359 359 359 357 356 355 354 353 352
218 218 220 222 222 222 224 226 227 226 226 225 227 229 232 235 239 242 247 251 254 258 262 263 267 273 282 296 313 327 338 343 346 349 351 353 353 353 352 351 351 350 349
217 218 219 221 221 222 224 226 226 225 225 226 227 230 232 235 238 241 246 248 252 256 259 261 263 267 272 283 300 315 326 333 338 342 345 347 348 349 349 348 347 346 345
216 217 218 220 221 221 223 224 225 226 226 228 229 231 234 236 239 242 245 247 250 254 257 259 261 264 267 276 289 302 313 322 330 335 338 341 343 344 345 345 344 343 342
215 216 217 219 220 221 222 223 224 227 228 229 230 232 234 237 240 242 245 246 250 254 256 257 260 262 266 274 283 294 306 316 323 329 333 336 338 340 341 341 341 341 339
213 215 217 219 220 221 222 223 224 227 230 231 232 233 234 237 240 243 245 247 250 253 254 256 259 263 268 274 282 291 302 311 318 324 328 331 333 335 337 338 338 338 337
212 214 215 218 220 222 223 224 226 229 232 233 233 234 235 238 240 242 244 247 250 252 254 256 259 263 268 275 282 291 300 307 314 319 322 325 329 331 333 334 335 335 335
211 212 215 217 220 222 224 226 229 232 234 235 235 236 237 238 240 242 245 247 250 254 256 259 261 265 270 277 283 290 298 305 310 315 319 322 325 327 329 330 331 332 331
212 213 214 216 219 223 226 229 232 235 237 238 238 238 238 239 240 243 245 247 251 255 259 263 266 270 275 280 285 291 297 302 307 311 315 319 321 323 325 326 327 327 327
212 212 214 215 219 223 227 231 235 238 241 241 241 241 241 241 242 244 247 249 253 258 262 265 270 274 278 282 286 291 295 300 305 309 312 315 317 319 321 323 324 324 324
214 213 212 214 220 225 229 232 236 239 242 243 243 244 244 245 246 248 250 252 255 260 264 267 270 274 278 282 286 290 294 298 303 306 310 312 313 315 318 320 321 321 322
215 212 211 214 220 225 229 233 237 239 241 243 244 245 247 248 250 251 253 255 258 262 265 269 272 276 279 283 286 290 294 297 301 304 306 308 310 312 314 316 317 318 319
217 216 215 217 221 227 231 234 238 240 243 244 244 246 247 249 251 253 255 257 260 264 267 270 273 276 279 282 286 290 293 295 298 300 303 306 308 309 310 312 314 315 316
222 220 220 222 224 228 233 236 239 243 246 247 248 248 249 250 252 255 257 259 262 265 268 270 273 277 280 282 284 287 290 292 295 297 300 303 305 306 308 309 311 312 313
228 227 227 227 227 229 233 238 241 245 249 251 253 254 254 254 254 255 257 259 262 265 268 270 273 276 278 281 283 285 288 290 292 295 297 300 302 304 305 307 308 309 310
233 232 232 232 231 233 236 240 243 247 251 256 258 259 259 259 258 258 258 260 262 265 268 270 273 275 278 279 282 284 286 288 291 293 296 298 299 301 302 303 305 306 306
235 236 236 236 237 238 240 242 245 249 254 257 259 261 262 263 262 262 262 262 263 265 267 270 272 275 278 279 280 283 285 287 289 292 294 296 297 299 300 301 302 303 304
235 237 239 239 241 242 244 246 250 254 256 257 260 262 263 264 265 264 264 264 265 267 268 270 273 274 276 278 279 282 284 286 288 291 292 294 295 297 298 299 300 301 302
236 238 240 243 244 245 247 249 252 255 258 260 261 263 265 266 266 266 267 267 267 268 269 271 273 274 276 276 278 280 283 285 288 289 291 292 294 296 297 297 298 299 300
236 239 241 244 247 249 250 252 253 254 257 260 262 264 265 266 267 268 268 267 268 269 270 272 274 275 275 276 277 279 281 284 287 289 291 292 293 295 295 296 297 297 298
236 238 241 244 247 249 251 253 255 256 258 260 263 264 264 265 266 267 268 269 269 271 272 274 275 276 276 277 279 280 281 282 284 286 288 290 291 293 293 294 294 295 296
238 240 242 245 247 250 252 254 255 256 258 260 262 263 264 264 265 267 268 270 271 272 274 276 276 276 276 278 280 281 282 283 285 286 287 289 290 291 291 292 292 293 294
239 240 243 244 246 249 252 254 255 257 259 260 261 263 264 265 266 267 269 270 271 273 275 276 277 278 278 279 280 281 282 284 285 288 288 288 289 290 290 291 292 292 293
239 241 243 245 246 249 251 254 256 258 259 261 262 262 263 264 266 267 269 271 272 273 274 275 277 278 278 279 280 281 282 283 285 287 287 288 289 289 290 290 291 292 292
Height
5880 5882 5884 5885 5887 5888 5889 5890 5891 5892 5892 5893 5893 5893 5894 5894 5894 5894 5894 5893 5893 5893 5892 5892 5891 5890 5889 5888 5888 5887 5886 5885 5884 5883 5882 5881 5880 5878 5877 5875 5874 5872 5870
5877 5879 5882 5883 5885 5886 5888 5889 5890 5891 5891 5892 5892 5892 5893 5893 5893 5893 5893 5893 5892 5892 5892 5891 5890 5890 5889 5888 5887 5886 5886 5885 5884 5883 5882 5880 5879 5878 5876 5875 5873 5871 5869
5874 5877 5879 5881 5883 5884 5886 5887 5888 5889 5890 5891 5891 5891 5892 5892 5892 5892 5892 5892 5892 5891 5891 5890 5890 5889 5888 5887 5887 5886 5885 5884 5883 5882 5881 5880 5879 5877 5876 5874 5872 5870 5868
5871 5874 5876 5879 5881 5882 5884 5885 5887 5888 5889 5889 5890 5890 5891 5891 5891 5891 5891 5891 5891 5890 5890 5889 5889 5888 5887 5887 5886 5885 5884 5883 5882 5881 5880 5879 5878 5876 5875 5873 5871 5869 5867
5867 5870 5873 5876 5878 5880 5882 5883 5885 5886 5887 5888 5888 5889 5889 5890 5890 5890 5890 5890 5890 5889 5889 5888 5888 5887 5886 5886 5885 5884 5883 5882 5881 5880 5879 5878 5877 5875 5873 5872 5870 5868 5866
5864 5867 5870 5873 5875 5877 5879 5881 5883 5884 5885 5886 5887 5887 5888 5888 5888 5889 5889 5889 5888 5888 5888 5887 5887 5886 5885 5885 5884 5883 5882 5881 5880 5879 5878 5877 5875 5874 5872 5870 5868 5866 5864
5859 5863 5866 5869 5872 5874 5877 5878 5880 5882 5883 5884 5885 5886 5886 5887 5887 5887 5887 5887 5887 5887 5886 5886 5885 5885 5884 5884 5883 5882 5881 5880 5879 5878 5876 5875 5874 5872 5870 5868 5866 5864 5862
5855 5859 5862 5866 5869 5871 5874 5876 5877 5879 5881 5882 5883 5883 5884 5885 5885 5885 5885 5885 5885 5885 5885 5884 5884 5883 5883 5882 5881 5880 5880 5879 5878 5876 5875 5874 5872 5870 5868 5866 5864 5862 5860
5850 5854 5858 5862 5865 5868 5870 5873 5874 5876 5878 5879 5880 5881 5882 5883 5883 5883 5883 5883 5883 5883 5883 5883 5882 5882 5881 5880 5880 5879 5878 5877 5876 5875 5873 5872 5870 5868 5866 5864 5862 5859 5857
5845 5850 5854 5858 5861 5864 5867 5869 5871 5873 5875 5876 5877 5878 5879 5880 5881 5881 5881 5881 5881 5881 5881 5881 5880 5880 5879 5879 5878 5877 5876 5875 5874 5872 5871 5869 5868 5866 5864 5862 5859 5857 5854
5839 5845 5849 5853 5857 5860 5863 5866 5868 5870 5871 5873 5874 5875 5876 5877 5878 5878 5879 5879 5879 5879 5879 5879 5878 5878 5877 5876 5876 5875 5873 5872 5871 5870 5868 5867 5865 5863 5861 5858 5856 5853 5851
5835 5840 5845 5849 5853 5856 5859 5862 5864 5866 5868 5869 5871 5872 5873 5874 5875 5875 5876 5876 5876 5876 5876 5876 5876 5875 5875 5874 5873 5872 5871 5870 5868 5867 5865 5864 5862 5860 5857 5855 5852 5850 5847
5830 5834 5840 5844 5848 5852 5855 5858 5860 5862 5864 5866 5867 5868 5870 5871 5871 5872 5873 5873 5873 5873 5873 5873 5873 5872 5872 5871 5870 5869 5868 5867 5865 5864 5862 5860 5858 5856 5854 5851 5848 5845 5842
5826 5830 5834 5839 5844 5847 5851 5854 5856 5858 5860 5862 5863 5865 5866 5867 5868 5869 5869 5870 5870 5870 5870 5870 5869 5869 5868 5867 5867 5866 5864 5863 5861 5860 5858 5856 5854 5852 5850 5847 5844 5841 5838
5821 5826 5829 5834 5838 5842 5846 5849 5851 5854 5856 5857 5859 5860 5862 5863 5864 5865 5865 5866 5866 5866 5866 5866 5866 5865 5864 5864 5863 5861 5860 5859 5857 5856 5854 5852 5850 5847 5845 5842 5839 5836 5833
5816 5821 5825 5829 5833 5837 5841 5844 5847 5849 5851 5853 5855 5856 5857 5858 5859 5860 5861 5862 5862 5862 5862 5862 5861 5861 5860 5859 5858 5857 5856 5854 5853 5851 5849 5847 5845 5842 5840 5837 5834 5831 5828
5810 5816 5820 5824 5828 5832 5835 5838 5841 5844 5846 5848 5850 5851 5852 5853 5854 5855 5856 5857 5857 5857 5857 5857 5857 5856 5856 5855 5854 5852 5851 5849 5848 5846 5844 5842 5839 5837 5834 5831 5828 5825 5822
5804 5810 5815 5819 5823 5827 5830 5833 5836 5838 5841 5842 5844 5846 5847 5848 5849 5850 5850 5851 5852 5852 5852 5852 5851 5851 5850 5849 5848 5847 5846 5844 5842 5840 5838 5836 5833 5831 5828 5825 5822 5819 5815
5798 5803 5808 5812 5816 5820 5824 5827 5830 5832 5835 5837 5838 5840 5841 5842 5843 5843 5844 5845 5845 5846 5845 5845 5845 5844 5844 5843 5842 5841 5839 5838 5836 5833 5831 5829 5826 5824 5821 5818 5815 5812 5808
5792 5797 5802 5806 5810 5814 5817 5820 5823 5826 5828 5830 5832 5833 5834 5835 5836 5837 5837 5838 5838 5839 5839 5838 5838 5837 5837 5836 5835 5834 5832 5831 5828 5826 5824 5821 5819 5816 5814 5811 5808 5804 5801
5786 5791 5795 5799 5803 5807 5810 5813 5816 5819 5821 5823 5824 5826 5827 5828 5829 5829 5830 5830 5831 5831 5831 5831 5830 5830 5829 5828 5827 5827 5825 5823 5821 5819 5816 5814 5811 5808 5805 5802 5799 5796 5793
5780 5784 5788 5792 5796 5799 5803 5806 5808 5811 5813 5815 5817 5818 5819 5820 5821 5822 5822 5822 5822 5823 5823 5822 5822 5821 5820 5819 5818 5818 5818 5816 5813 5810 5807 5805 5802 5800 5797 5794 5791 5788 5785
5774 5778 5782 5786 5789 5792 5795 5798 5800 5802 5805 5807 5809 5810 5811 5812 5813 5813 5813 5814 5814 5814 5814 5813 5813 5812 5811 5810 5808 5807 5807 5806 5805 5803 5799 5796 5793 5791 5788 5785 5782 5780 5777
5767 5771 5774 5778 5781 5784 5787 5789 5792 5794 5796 5798 5800 5801 5802 5803 5804 5804 5804 5804 5804 5804 5804 5803 5803 5802 5801 5800 5799 5797 5796 5795 5794 5793 5790 5787 5784 5781 5779 5776 5773 5770 5767
5759 5763 5767 5770 5773 5776 5779 5781 5783 5786 5788 5789 5790 5792 5792 5793 5793 5794 5794 5794 5794 5794 5794 5793 5793 5792 5791 5790 5788 5787 5785 5784 5782 5780 5779 5777 5774 5771 5769 5766 5763 5760 5758
5751 5755 5758 5762 5765 5767 5770 5772 5774 5776 5778 5779 5780 5781 5782 5783 5783 5783 5783 5784 5784 5783 5783 5783 5782 5781 5780 5779 5778 5776 5775 5773 5771 5769 5767 5765 5763 5760 5758 5756 5753 5750 5747